Regional Weather Roundup
Issued by NWS Green Bay, WI

Home | Current Version | Previous Version | Text Only | Print | Product List | Glossary On
Versions: 1 2 3 4 5 6 7 8 9 10 11 12 13 14 15 16 17 18 19 20 21 22 23 24 25 26 27 28 29 30 31 32 33 34 35 36 37 38 39 40 41 42 43 44 45 46 47 48 49 50
000
ASUS43 KGRB 170659
RWRGRB

NORTH-CENTRAL AND NORTHEAST WISCONSIN REGIONAL WEATHER ROUNDUP
NATIONAL WEATHER SERVICE GREEN BAY WI
200 AM CDT THU APR 17 2014

WIZ005-009-010>012-018-019-170800-
NORTH CENTRAL WISCONSIN

CITY           SKY/WX    TMP DP  RH WIND       PRES   REMARKS
IRONWOOD       CLOUDY    30  27  86 E7        30.04F
MANITOWISH WTR NOT AVBL
ARBOR VITAE    NOT AVBL
EAGLE RIVER    NOT AVBL
LAND O LAKES   NOT AVBL
RHINELANDER    LGT SNOW  30  28  92 E13       30.07F FOG
PHILLIPS       NOT AVBL
ANTIGO         NOT AVBL
TOMAHAWK       NOT AVBL
MERRILL        NOT AVBL
$$

WIZ013-073-170800-
NORTHEAST WISCONSIN

CITY           SKY/WX    TMP DP  RH WIND       PRES   REMARKS
IRON MOUNTAIN  LGT SNOW  30  27  88 E8        30.17F FOG
MARINETTE      CLOUDY    34  28  80 SE6       30.20F
$$

WIZ017-030-035>037-045-170800-
CENTRAL WISCONSIN

CITY           SKY/WX    TMP DP  RH WIND       PRES   REMARKS
MEDFORD        NOT AVBL
WAUSAU         LGT SNOW  33  30  88 E16G23    30.03F FOG
MOSINEE        NOT AVBL
MARSHFIELD     CLOUDY    39  30  70 SE16G29   29.97F
WISC RAPIDS    CLOUDY    41  28  60 SE12G20   30.00F
STEVENS POINT  NOT AVBL
WAUPACA        NOT AVBL
SHAWANO        NOT AVBL
CLINTONVILLE   NOT AVBL
$$

WIZ038-039-048-051-170800-
FOX VALLEY

CITY           SKY/WX    TMP DP  RH WIND       PRES   REMARKS
NWS GREEN BAY  CLOUDY    39  28  64 SE20G26   30.15F
APPLETON       NOT AVBL
OSHKOSH        CLOUDY    40  27  59 SE12G21   30.09F
FOND DU LAC    CLOUDY    40  28  62 SE15      30.09F
$$

WIZ022-050-052-170800-
EAST CENTRAL WISCONSIN

CITY           SKY/WX    TMP DP  RH WIND       PRES   REMARKS
STURGEON BAY   CLOUDY    37  25  60 SE15      30.20F
MANITOWOC      NOT AVBL
SHEBOYGAN      CLOUDY    39  28  64 SE13G29   30.16F
$$

LMZ563-521-522-541>543-170800-
LAKESHORE

STATION/POSITION TIME  TEMP    WIND        PRES    VSBY  WAVE
                       AIR SEA DIR/SP/G                  HT/PER
                 (UTC) (F)     (DEG/KT/KT) (MB)    (MI)  (FT/S)
SHEBOYGAN LKSHOR 0600   39     130/ 25/ 29 1021.9F
NORTHPORT PIER   0600   35     100/ 15/ 17 1024.0R
SISTER BAY LKSHO 0600   36     120/  7/ 10   N/A
MENOMINEE LKSHOR 0600   32      30/  9/ 10 1023.5F
$$



USA.gov is the U.S. government's official web portal to all federal, state and local government web resources and services.